{"data":{"norad_id":43794,"intl_designator":"2018-099AN","name":"HAWK-B","alt_names":[],"object_type":"PAYLOAD","status":"ACTIVE","operator":null,"country":"US","launch_date":"2018-12-03","launch_site_code":"AFWTR","launch_vehicle":null,"mission":null,"orbit_class":"UNKNOWN","rcs_meters":null,"size_class":null,"mass_kg":null,"dimensions":null,"purposes":["tech_demo"],"wikipedia_slug":null,"has_3d_model":false,"image_url":null,"decayed_at":null,"tle_current":{"epoch":"2026-05-25T02:33:33.534432Z","epoch_age_seconds":76215,"freshness":"FRESH","line1":"1 43794U 18099AN  26145.10663813  .00005725  00000+0  24643-3 0  9990","line2":"2 43794  97.3981 197.1098 0032774  27.6289 332.6680 15.22516431409526","mean_motion":15.22516431,"eccentricity":0.0032774,"inclination_deg":97.3981,"raan_deg":197.1098,"arg_perigee_deg":27.6289,"mean_anomaly_deg":332.668,"bstar":0.00024643,"rev_number":40952,"period_min":94.580260066829,"perigee_km":475.71656807716,"apogee_km":520.78993088446,"semimajor_km":6876.3902494808,"source":"CELESTRAK","updated_at":"2026-05-25T13:38:24.898067Z"}}}